Regional Weather Roundup
Issued by NWS

Home | Current Version | Previous Version | Graphics & Text | Print | Product List | Glossary On
Versions: 1 2 3 4 5 6 7 8 9 10 11 12 13 14 15 16 17 18 19 20 21 22 23 24 25 26 27 28 29 30 31 32 33 34 35 36 37 38 39 40 41 42 43 44 45 46 47 48 49 50
000
ASUS43 KLMK 251510
RWRKY
KENTUCKY REGIONAL WEATHER ROUNDUP
NATIONAL WEATHER SERVICE LOUISVILLE KY
1100 AM EDT WED APR 25 2018

NOTE "FAIR" INDICATES FEW OR NO CLOUDS BELOW 12,000 FEET
WITH NO SIGNIFICANT WEATHER AND/OR OBSTRUCTIONS TO VISIBILITY.

KYZ001>023-026-027-061>063-070>075-251600-
WESTERN AND SOUTH CENTRAL KENTUCKY

CITY           SKY/WX    TMP DP  RH WIND       PRES   REMARKS
PADUCAH        FAIR      66  56  70 NE6       30.03R
HENDERSON      FAIR      61  54  77 NW6       30.04
OWENSBORO      PTSUNNY   60  52  74 N9        30.02R
HOPKINSVILLE   FAIR      62  57  83 N7        30.03R
BOWLING GREEN  CLOUDY    61  53  75 VRB7      30.00S
GLASGOW        CLOUDY    58  51  76 N10G16    29.99S
$$

KYZ024-025-028>034-038-045-046-053-251600-
NORTH CENTRAL KENTUCKY

CITY           SKY/WX    TMP DP  RH WIND       PRES   REMARKS
LOUISVILLE/SDF CLOUDY    60  51  72 N14       29.98S
LOUISVILLE/LOU CLOUDY    59  53  80 N7G20     29.99S
FORT KNOX      CLOUDY    56  52  87 NW8       29.99F
$$

KYZ035>037-039>044-047>052-055>060-089>105-251600-
NORTHEAST KENTUCKY

CITY           SKY/WX    TMP DP  RH WIND       PRES   REMARKS
LEXINGTON      CLOUDY    55  50  83 NW9       29.96R
COVINGTON      DRIZZLE   54  51  90 NW12      29.97R FOG
FRANKFORT      CLOUDY    56  49  77 N7        29.96R
$$

KYZ054-064>069-076>088-106>120-251600-
SOUTHEAST KENTUCKY

CITY           SKY/WX    TMP DP  RH WIND       PRES   REMARKS
JACKSON        CLOUDY    55  52  89 CALM      29.91S
LONDON         CLOUDY    55  52  89 W9        29.95R
SOMERSET       CLOUDY    52  52 100 N7        29.99R FOG
MIDDLESBORO    DRIZZLE   55  53  92 CALM      29.94S
MONTICELLO     NOT AVBL
$$





USA.gov is the U.S. government's official web portal to all federal, state and local government web resources and services.